Location: Newark
(54.6833°N, 25.2833°E)
Time: 04:41:18
(UTC+00:00)

Tiros 1 despin weight - Pass Details

Date: 18 November 2019
Orbit: 594 x 642 km, 48.2° (Epoch: 13 December)

Event Time Altitude Azimuth Distance (km) Brightness Sun altitude
Rises 15:42:35 0° 265° (W) 2,843 ? -12.6°
Reaches altitude 10° 15:45:03 10° 255° (WSW) 1,946 ? -12.9°
Maximum altitude 15:48:59 31° 193° (SSW) 1,065 ? -13.5°
Drops below altitude 10° 15:52:58 10° 131° (SE) 1,967 ? -14.1°
Enters shadow 15:53:22 - 129° (SE) 2,108 ? -14.1°
Sets 15:55:28 0° 122° (ESE) 2,880 - -14.4°
